DW0364 Weather Reports


time (UTC)temp
C
wind
direction
speed
KPH
gust
KPH
rain 1hr
cm
rain 24hr
cm
rain mn
cm
humidity
%
barometer
mb
20260505032103 17 261 1.6 3.2 0.00 0.00 0.00 54 1014.7
20260505031601 17 258 1.6 3.2 0.00 0.00 0.00 57 1014.7
20260505031057 17 261 0.0 3.2 0.00 0.00 0.00 58 1014.8
20260505030554 16 264 0.0 1.6 0.00 0.00 0.00 60 1014.8
20260505030050 15 286 1.6 3.2 0.00 0.00 0.00 62 1015.0
20260505025546 15 267 0.0 0.0 0.00 0.00 0.00 65 1014.8
20260505025045 15 267 0.0 0.0 0.00 0.00 0.00 64 1014.7
20260505024542 15 267 0.0 0.0 0.00 0.00 0.00 65 1014.7
20260505024039 15 267 0.0 0.0 0.00 0.00 0.00 65 1014.8
20260505023536 15 267 0.0 0.0 0.00 0.00 0.00 65 1014.6
20260505023034 15 267 0.0 0.0 0.00 0.00 0.00 67 1014.7
20260505022531 15 267 0.0 0.0 0.00 0.00 0.00 66 1014.7
20260505022028 15 267 0.0 0.0 0.00 0.00 0.00 65 1014.4
20260505021524 15 267 0.0 0.0 0.00 0.00 0.00 64 1014.5
20260505021020 15 267 0.0 0.0 0.00 0.00 0.00 64 1014.7
20260505020515 15 267 0.0 0.0 0.00 0.00 0.00 63 1014.4
20260505020013 15 267 0.0 0.0 0.00 0.00 0.00 62 1014.4
20260505015509 15 267 0.0 0.0 0.00 0.00 0.00 62 1014.5
20260505015006 15 267 0.0 0.0 0.00 0.00 0.00 61 1014.4
20260505014503 16 267 0.0 0.0 0.00 0.00 0.00 62 1014.4
20260505014001 16 267 0.0 0.0 0.00 0.00 0.00 60 1014.2
20260505013457 16 267 0.0 0.0 0.00 0.00 0.00 58 1014.5
20260505012954 16 267 0.0 0.0 0.00 0.00 0.00 59 1014.3
20260505012453 16 267 0.0 0.0 0.00 0.00 0.00 58 1014.4
20260505011949 16 267 0.0 0.0 0.00 0.00 0.00 58 1014.1
20260505011445 17 267 0.0 0.0 0.00 0.00 0.00 56 1014.2
20260505010942 17 267 0.0 0.0 0.00 0.00 0.00 56 1014.0
20260505010438 17 267 0.0 0.0 0.00 0.00 0.00 55 1014.1
20260505005934 17 267 0.0 0.0 0.00 0.00 0.00 55 1013.8
20260505005431 17 267 0.0 0.0 0.00 0.00 0.00 55 1014.0
20260505004929 17 267 0.0 0.0 0.00 0.00 0.00 54 1014.0
20260505004425 18 267 0.0 0.0 0.00 0.00 0.00 53 1014.0
20260505003922 18 267 0.0 0.0 0.00 0.00 0.00 53 1013.8
20260505003419 18 267 0.0 0.0 0.00 0.00 0.00 52 1013.8
20260505002915 18 267 0.0 0.0 0.00 0.00 0.00 52 1013.8
20260505002412 18 267 0.0 0.0 0.00 0.00 0.00 52 1013.7
20260505001910 19 267 0.0 0.0 0.00 0.00 0.00 51 1013.7
20260505001408 20 267 0.0 0.0 0.00 0.00 0.00 51 1013.7
20260505000905 20 267 0.0 0.0 0.00 0.00 0.00 50 1013.8
20260505000403 20 267 0.0 0.0 0.00 0.00 0.00 49 1013.7
20260504235859 20 267 0.0 0.0 0.00 0.00 0.00 48 1013.5
20260504235356 20 267 0.0 0.0 0.00 0.00 0.00 49 1013.4
20260504234852 21 267 0.0 0.0 0.00 0.00 0.00 48 1013.4
20260504234350 21 267 0.0 0.0 0.00 0.00 0.00 48 1013.4
20260504233846 21 267 0.0 0.0 0.00 0.00 0.00 46 1013.2
20260504233342 21 267 0.0 0.0 0.00 0.00 0.00 45 1013.5
20260504232839 21 267 0.0 0.0 0.00 0.00 0.00 46 1013.4
20260504232336 22 267 0.0 0.0 0.00 0.00 0.00 44 1013.1
20260504231833 22 267 0.0 0.0 0.00 0.00 0.00 43 1013.3
20260504231329 22 267 0.0 1.6 0.00 0.00 0.00 42 1013.2
20260504230825 22 266 0.0 1.6 0.00 0.00 0.00 40 1013.3
20260504230323 22 267 0.0 1.6 0.00 0.00 0.00 40 1013.1
20260504225822 23 288 0.0 3.2 0.00 0.00 0.00 39 1013.0
20260504225318 23 274 1.6 3.2 0.00 0.00 0.00 40 1013.0
20260504224816 23 272 0.0 4.8 0.00 0.00 0.00 39 1013.2
20260504224312 23 264 3.2 3.2 0.00 0.00 0.00 40 1013.2
20260504223809 23 280 1.6 3.2 0.00 0.00 0.00 40 1013.1
20260504223304 23 278 1.6 3.2 0.00 0.00 0.00 40 1013.2
20260504222801 23 316 0.0 0.0 0.00 0.00 0.00 41 1013.1
20260504222258 23 22 0.0 3.2 0.00 0.00 0.00 39 1013.2
20260504221756 23 269 3.2 3.2 0.00 0.00 0.00 38 1013.1
20260504221253 23 286 1.6 3.2 0.00 0.00 0.00 37 1012.9
20260504220750 23 269 1.6 3.2 0.00 0.00 0.00 39 1013.1
20260504220247 23 279 0.0 1.6 0.00 0.00 0.00 39 1013.3
20260504215744 23 337 0.0 3.2 0.00 0.00 0.00 39 1013.2
20260504215240 23 240 1.6 3.2 0.00 0.00 0.00 37 1013.1
20260504214736 23 291 0.0 1.6 0.00 0.00 0.00 40 1013.3
20260504214233 23 285 0.0 1.6 0.00 0.00 0.00 38 1013.2
20260504213729 23 296 0.0 3.2 0.00 0.00 0.00 39 1013.2
20260504213225 23 307 0.0 3.2 0.00 0.00 0.00 39 1013.2
20260504212722 23 265 0.0 3.2 0.00 0.00 0.00 38 1013.3
20260504212214 23 16 1.6 1.6 0.00 0.00 0.00 37 1013.1
20260504211711 23 319 1.6 8.0 0.00 0.00 0.00 35 1013.2
20260504211207 24 280 3.2 3.2 0.00 0.00 0.00 35 1013.4
20260504210705 24 269 1.6 3.2 0.00 0.00 0.00 35 1013.3
20260504210202 25 269 1.6 8.0 0.00 0.00 0.00 35 1013.3
20260504205659 25 267 3.2 3.2 0.00 0.00 0.00 36 1013.3
20260504205156 25 263 4.8 4.8 0.00 0.00 0.00 36 1013.2
20260504204654 25 265 4.8 4.8 0.00 0.00 0.00 35 1013.3
20260504204153 25 290 0.0 1.6 0.00 0.00 0.00 37 1013.3
20260504203651 25 271 1.6 8.0 0.00 0.00 0.00 37 1013.5
20260504203149 25 279 3.2 4.8 0.00 0.00 0.00 36 1013.5
20260504202648 25 299 3.2 4.8 0.00 0.00 0.00 36 1013.6
20260504202146 25 310 0.0 3.2 0.00 0.00 0.00 36 1013.5
20260504201643 25 336 1.6 3.2 0.00 0.00 0.00 35 1013.8
20260504201141 25 177 1.6 3.2 0.00 0.00 0.00 33 1013.9
20260504200638 25 305 0.0 3.2 0.00 0.00 0.00 35 1013.8
20260504200134 25 276 1.6 3.2 0.00 0.00 0.00 33 1014.0
20260504195630 25 299 3.2 9.7 0.00 0.00 0.00 35 1014.1
20260504195126 26 273 3.2 4.8 0.00 0.00 0.00 36 1013.9
20260504194623 25 318 0.0 3.2 0.00 0.00 0.00 36 1014.0
20260504194119 25 303 1.6 4.8 0.00 0.00 0.00 36 1014.2
20260504193616 26 268 3.2 4.8 0.00 0.00 0.00 37 1014.2
20260504193114 25 297 0.0 3.2 0.00 0.00 0.00 39 1014.2
20260504192612 25 315 0.0 3.2 0.00 0.00 0.00 36 1014.3
20260504192110 25 280 1.6 4.8 0.00 0.00 0.00 36 1014.3
20260504191608 25 295 0.0 3.2 0.00 0.00 0.00 36 1014.2
20260504191104 26 262 3.2 3.2 0.00 0.00 0.00 35 1014.3
20260504190600 25 316 1.6 1.6 0.00 0.00 0.00 36 1014.2
20260504190056 25 262 3.2 3.2 0.00 0.00 0.00 35 1014.3
20260504185553 25 294 1.6 4.8 0.00 0.00 0.00 36 1014.6
20260504185050 25 294 1.6 3.2 0.00 0.00 0.00 34 1014.6
20260504184545 25 308 0.0 3.2 0.00 0.00 0.00 35 1014.6
20260504184041 24 294 3.2 3.2 0.00 0.00 0.00 34 1014.8
20260504183538 24 286 1.6 4.8 0.00 0.00 0.00 35 1014.7
20260504183036 25 301 1.6 4.8 0.00 0.00 0.00 34 1014.8
20260504182533 25 268 3.2 3.2 0.00 0.00 0.00 35 1015.0
20260504182030 25 234 3.2 4.8 0.00 0.00 0.00 34 1014.8
20260504181527 25 347 0.0 1.6 0.00 0.00 0.00 35 1015.2
20260504181026 25 322 0.0 3.2 0.00 0.00 0.00 37 1014.8
20260504180524 25 352 1.6 3.2 0.00 0.00 0.00 34 1015.0
20260504180023 24 347 0.0 1.6 0.00 0.00 0.00 33 1014.8
20260504175519 24 34 0.0 3.2 0.00 0.00 0.00 34 1015.2
20260504175016 23 275 1.6 3.2 0.00 0.00 0.00 37 1015.4
20260504174514 24 70 1.6 3.2 0.00 0.00 0.00 34 1015.1
20260504174011 23 258 1.6 3.2 0.00 0.00 0.00 36 1015.2
20260504173508 23 290 1.6 3.2 0.00 0.00 0.00 37 1015.3
20260504173005 23 274 1.6 3.2 0.00 0.00 0.00 37 1015.4
20260504172501 23 302 1.6 3.2 0.00 0.00 0.00 35 1015.3
20260504171957 23 358 4.8 4.8 0.00 0.00 0.00 34 1015.5
20260504171455 23 307 1.6 1.6 0.00 0.00 0.00 35 1015.6
20260504170951 23 322 0.0 1.6 0.00 0.00 0.00 36 1015.7
20260504170447 23 273 1.6 3.2 0.00 0.00 0.00 36 1015.8
20260504160408 22 348 0.0 3.2 0.00 0.00 0.00 38 1016.8
20260504150831 21 315 1.6 1.6 0.00 0.00 0.00 42 1017.1
20260504150328 21 287 1.6 3.2 0.00 0.00 0.00 40 1016.9
20260504141258 19 320 0.0 0.0 0.00 0.00 0.00 52 1016.9
20260504140755 18 281 1.6 1.6 0.00 0.00 0.00 57 1016.9
20260504140250 18 347 0.0 3.2 0.00 0.00 0.00 58 1017.0
20260504130719 16 313 0.0 1.6 0.00 0.00 0.00 66 1016.9
20260504130214 16 320 0.0 0.0 0.00 0.00 0.00 68 1016.9
20260504120139 11 280 0.0 0.0 0.00 0.00 0.00 84 1016.5
20260504110606 6 279 0.0 0.0 0.00 0.00 0.00 98 1016.6
20260504100528 6 280 0.0 0.0 0.00 0.00 0.00 97 1015.9
20260504081921 7 279 0.0 0.0 0.00 0.00 0.00 89 1016.2
20260504081418 8 279 0.0 0.0 0.00 0.00 0.00 88 1016.0
20260504080914 8 279 0.0 0.0 0.00 0.00 0.00 88 1016.0
20260504080411 8 279 0.0 0.0 0.00 0.00 0.00 88 1015.9
20260504070338 8 279 0.0 0.0 0.00 0.00 0.00 86 1016.0
20260504050721 11 280 0.0 1.6 0.00 0.00 0.00 75 1016.2
20260504050218 11 279 0.0 0.0 0.00 0.00 0.00 73 1016.1
20260504045716 11 279 0.0 1.6 0.00 0.00 0.00 73 1016.2
20260504045215 11 279 0.0 1.6 0.00 0.00 0.00 73 1016.0
20260504044714 11 279 0.0 1.6 0.00 0.00 0.00 73 1016.0
20260504044211 11 281 0.0 0.0 0.00 0.00 0.00 75 1016.2
20260504043708 11 281 0.0 0.0 0.00 0.00 0.00 76 1016.2
20260504043204 11 281 0.0 0.0 0.00 0.00 0.00 76 1016.1
20260504042702 11 281 0.0 0.0 0.00 0.00 0.00 75 1016.1
20260504042158 11 281 0.0 0.0 0.00 0.00 0.00 76 1016.2
20260504041654 11 281 0.0 0.0 0.00 0.00 0.00 76 1016.4
20260504041150 11 281 0.0 0.0 0.00 0.00 0.00 76 1016.2
20260504040647 11 287 0.0 0.0 0.00 0.00 0.00 76 1016.4
20260504040144 11 287 0.0 0.0 0.00 0.00 0.00 78 1016.4
20260504035641 11 287 0.0 0.0 0.00 0.00 0.00 78 1016.4
20260504035138 11 287 0.0 0.0 0.00 0.00 0.00 77 1016.5
20260504034635 11 287 0.0 0.0 0.00 0.00 0.00 76 1016.7
20260504034132 11 287 0.0 0.0 0.00 0.00 0.00 76 1016.6
20260504033630 11 287 0.0 0.0 0.00 0.00 0.00 75 1016.5
20260504033127 11 287 0.0 0.0 0.00 0.00 0.00 75 1016.8
20260504032624 11 287 0.0 0.0 0.00 0.00 0.00 75 1016.5